H1 CPF 2 NER 2025 10 2 9 275 01 glonass131 H2 1301901 9131 39155 2025 10 2 0 0 0 2025 10 5 23 45 0 900 1 1 0 0 0 1 H9 10 0 60950 0.00000 0 -12791768.673 -16077973.274 15104631.420 10 0 60950 900.00000 0 -13524097.967 -17620312.416 12511437.204 10 0 60950 1800.00000 0 -14230049.914 -18800608.368 9674793.906 10 0 60950 2700.00000 0 -14850363.462 -19607989.429 6649736.246 10 0 60950 3600.00000 0 -15326524.700 -20044980.529 3495073.851 10 0 60950 4500.00000 0 -15603411.688 -20127219.882 272244.247 10 0 60950 5400.00000 0 -15631817.027 -19882632.888 -2955894.342 10 0 60950 6300.00000 0 -15370738.720 -19350097.083 -6126305.689 10 0 60950 7200.00000 0 -14789339.113 -18577654.300 -9177027.663 10 0 60950 8100.00000 0 -13868485.599 -17620346.238 -12048407.001 10 0 60950 9000.00000 0 -12601804.656 -16537766.392 -14684290.094 10 0 60950 9900.00000 0 -10996201.879 -15391434.005 -17033143.939 10 0 60950 10800.00000 0 -9071823.993 -14242103.557 -19049083.094 10 0 60950 11700.00000 0 -6861463.203 -13147126.102 -20692780.654 10 0 60950 12600.00000 0 -4409428.595 -12157976.230 -21932244.187 10 0 60950 13500.00000 0 -1769932.438 -11318050.872 -22743440.844 10 0 60950 14400.00000 0 994939.965 -10660833.803 -23110759.492 10 0 60950 15300.00000 0 3817590.456 -10208503.391 -23027301.513 10 0 60950 16200.00000 0 6627498.165 -9971041.442 -22494995.823 10 0 60950 17100.00000 0 9353930.247 -9945879.055 -21524537.451 10 0 60950 18000.00000 0 11928659.380 -10118092.133 -20135152.762 10 0 60950 18900.00000 0 14288574.614 -10461135.564 -18354197.864 10 0 60950 19800.00000 0 16378077.483 -10938082.307 -16216599.998 10 0 60950 20700.00000 0 18151164.928 -11503312.430 -13764154.616 10 0 60950 21600.00000 0 19573114.448 -12104578.561 -11044693.450 10 0 60950 22500.00000 0 20621703.980 -12685358.898 -8111141.019 10 0 60950 23400.00000 0 21287918.809 -13187397.503 -5020478.907 10 0 60950 24300.00000 0 21576119.342 -13553324.426 -1832638.416 10 0 60950 25200.00000 0 21503665.976 -13729245.607 1390656.797 10 0 60950 26100.00000 0 21100019.615 -13667194.375 4587075.989 10 0 60950 27000.00000 0 20405357.735 -13327342.700 7694872.331 10 0 60950 27900.00000 0 19468765.409 -12679880.724 10654057.790 10 0 60950 28800.00000 0 18346077.661 -11706487.077 13407540.680 10 0 60950 29700.00000 0 17097463.221 -10401329.433 15902205.753 10 0 60950 30600.00000 0 15784849.773 -8771553.975 18089917.928 10 0 60950 31500.00000 0 14469296.793 -6837243.181 19928432.296 10 0 60950 32400.00000 0 13208423.835 -4630842.721 21382194.716 10 0 60950 33300.00000 0 12053999.625 -2196079.566 22423019.169 10 0 60950 34200.00000 0 11049790.815 413586.201 23030629.933 10 0 60950 35100.00000 0 10229758.765 3136914.632 23193058.706 10 0 60950 36000.00000 0 9616678.873 5907166.571 22906888.960 10 0 60950 36900.00000 0 9221240.109 8654620.532 22177342.000 10 0 60950 37800.00000 0 9041663.149 11309224.576 21018201.676 10 0 60950 38700.00000 0 9063854.585 13803275.788 19451577.129 10 0 60950 39600.00000 0 9262092.796 16074017.895 17507505.768 10 0 60950 40500.00000 0 9600219.017 18066049.940 15223401.454 10 0 60950 41400.00000 0 10033285.899 19733445.683 12643355.938 10 0 60950 42300.00000 0 10509596.130 21041494.320 9817304.684 10 0 60950 43200.00000 0 10973046.577 21967988.110 6800071.357 10 0 60950 44100.00000 0 11365679.448 22504000.859 3650308.223 10 0 60950 45000.00000 0 11630332.191 22654122.311 429352.656 10 0 60950 45900.00000 0 11713272.512 22436136.533 -2799977.674 10 0 60950 46800.00000 0 11566704.613 21880156.283 -5974626.353 10 0 60950 47700.00000 0 11151037.461 21027248.987 -9032550.437 10 0 60950 48600.00000 0 10436815.669 19927612.370 -11913956.655 10 0 60950 49500.00000 0 9406227.836 18638377.620 -14562494.912 10 0 60950 50400.00000 0 8054125.423 17221134.540 -16926383.216 10 0 60950 51300.00000 0 6388506.595 15739285.385 -18959439.725 10 0 60950 52200.00000 0 4430442.831 14255341.503 -20621999.869 10 0 60950 53100.00000 0 2213450.491 12828279.243 -21881699.265 10 0 60950 54000.00000 0 -217666.292 11511068.546 -22714106.508 10 0 60950 54900.00000 0 -2808452.240 10348479.644 -23103193.458 10 0 60950 55800.00000 0 -5496847.264 9375260.698 -23041634.526 10 0 60950 56700.00000 0 -8215555.544 8614762.510 -22530930.248 10 0 60950 57600.00000 0 -10894636.968 8078066.757 -21581354.396 10 0 60950 58500.00000 0 -13464211.640 7763652.193 -20211727.457 10 0 60950 59400.00000 0 -15857164.100 7657609.999 -18449022.937 10 0 60950 60300.00000 0 -18011734.591 7734396.093 -16327816.070 10 0 60950 61200.00000 0 -19873890.148 7958085.512 -13889587.576 10 0 60950 62100.00000 0 -21399378.268 8284073.106 -11181897.580 10 0 60950 63000.00000 0 -22555379.715 8661146.400 -8257447.103 10 0 60950 63900.00000 0 -23321694.238 9033841.463 -5173046.316 10 0 60950 64800.00000 0 -23691412.717 9344981.410 -1988510.156 10 0 60950 65700.00000 0 -23671050.743 9538290.265 1234497.144 10 0 60950 66600.00000 0 -23280140.892 9560972.442 4433646.522 10 0 60950 67500.00000 0 -22550303.144 9366150.183 7547135.337 10 0 60950 68400.00000 0 -21523834.077 8915057.709 10514863.544 10 0 60950 69300.00000 0 -20251874.741 8178901.268 13279573.540 10 0 60950 70200.00000 0 -18792233.949 7140308.267 15787933.469 10 0 60950 71100.00000 0 -17206957.171 5794305.575 17991545.064 10 0 60950 72000.00000 0 -15559741.192 4148786.304 19847858.541 10 0 60950 72900.00000 0 -13913300.481 2224444.988 21320978.824 10 0 60950 73800.00000 0 -12326792.964 54182.488 22382349.149 10 0 60950 74700.00000 0 -10853410.366 -2317996.788 23011300.028 10 0 60950 75600.00000 0 -9538231.681 -4838552.378 23195453.618 10 0 60950 76500.00000 0 -8416427.856 -7446378.168 22930975.621 10 0 60950 77400.00000 0 -7511891.914 -10075097.418 22222669.134 10 0 60950 78300.00000 0 -6836351.721 -12655590.542 21083907.213 10 0 60950 79200.00000 0 -6389003.312 -15118653.672 19536403.452 10 0 60950 80100.00000 0 -6156681.612 -17397679.784 17609822.598 10 0 60950 81000.00000 0 -6114563.287 -19431252.264 15341236.071 10 0 60950 81900.00000 0 -6227374.345 -21165543.259 12774430.257 10 0 60950 82800.00000 0 -6451053.632 -22556416.109 9959078.596 10 0 60950 83700.00000 0 -6734803.689 -23571142.520 6949791.549 10 0 60950 84600.00000 0 -7023443.221 -24189660.442 3805061.603 10 0 60950 85500.00000 0 -7259961.699 -24405317.409 586123.324 10 0 60951 0.00000 0 -7388166.968 -24225065.699 -2644248.753 10 0 60951 900.00000 0 -7355311.844 -23669098.816 -5822981.647 10 0 60951 1800.00000 0 -7114585.547 -22769943.435 -8887954.502 10 0 60951 2700.00000 0 -6627361.444 -21571044.116 -11779237.318 10 0 60951 3600.00000 0 -5865102.246 -20124900.868 -14440286.834 10 0 60951 4500.00000 0 -4810838.817 -18490839.176 -16819075.315 10 0 60951 5400.00000 0 -3460157.206 -16732508.341 -18869127.597 10 0 60951 6300.00000 0 -1821649.983 -14915215.776 -20550444.220 10 0 60951 7200.00000 0 83188.504 -13103211.903 -21830291.235 10 0 60951 8100.00000 0 2220619.108 -11357042.055 -22683840.580 10 0 60951 9000.00000 0 4545839.221 -9731078.328 -23094648.503 10 0 60951 9900.00000 0 7004638.039 -8271335.955 -23054963.291 10 0 60951 10800.00000 0 9535455.108 -7013665.807 -22565857.473 10 0 60951 11700.00000 0 12071754.612 -5982397.808 -21637183.466 10 0 60951 12600.00000 0 14544614.814 -5189490.275 -20287355.376 10 0 60951 13500.00000 0 16885423.547 -4634218.081 -18542963.203 10 0 60951 14400.00000 0 19028566.848 -4303409.530 -16438228.901 10 0 60951 15300.00000 0 20913998.725 -4172218.449 -14014316.775 10 0 60951 16200.00000 0 22489585.823 -4205395.613 -11318513.274 10 0 60951 17100.00000 0 23713130.776 -4359002.896 -8403293.437 10 0 60951 18000.00000 0 24553991.964 -4582495.460 -5325293.183 10 0 60951 18900.00000 0 24994234.681 -4821082.484 -2144207.946 10 0 60951 19800.00000 0 25029268.414 -5018265.998 1078360.818 10 0 60951 20700.00000 0 24667946.337 -5118450.681 4280089.163 10 0 60951 21600.00000 0 23932125.272 -5069515.209 7399122.038 10 0 60951 22500.00000 0 22855706.404 -4825237.950 10375250.650 10 0 60951 23400.00000 0 21483197.986 -4347476.335 13151054.502 10 0 60951 24300.00000 0 19867860.434 -3608009.666 15672987.863 10 0 60951 25200.00000 0 18069510.773 -2589969.177 17892391.666 10 0 60951 26100.00000 0 16152076.777 -1288796.019 19766413.294 10 0 60951 27000.00000 0 14181000.945 287312.980 21258818.409 10 0 60951 27900.00000 0 12220600.186 2117491.312 22340680.815 10 0 60951 28800.00000 0 10331488.794 4168818.706 22990938.215 10 0 60951 29700.00000 0 8568169.703 6397443.826 23196803.784 10 0 60951 30600.00000 0 6976892.415 8750170.185 22954025.640 10 0 60951 31500.00000 0 5593865.511 11166442.804 22266988.445 10 0 60951 32400.00000 0 4443897.658 13580656.539 21148653.844 10 0 60951 33300.00000 0 3539523.988 15924693.439 19620338.879 10 0 60951 34200.00000 0 2880655.282 18130586.193 17711334.272 10 0 60951 35100.00000 0 2454766.104 20133198.678 15458367.317 10 0 60951 36000.00000 0 2237615.802 21872812.721 12904917.073 10 0 60951 36900.00000 0 2194473.983 23297512.834 10100392.728 10 0 60951 37800.00000 0 2281800.462 24365268.071 7099189.106 10 0 60951 38700.00000 0 2449309.948 25045621.775 3959636.288 10 0 60951 39600.00000 0 2642334.540 25320915.780 742863.275 10 0 60951 40500.00000 0 2804383.545 25186994.919 -2488401.948 10 0 60951 41400.00000 0 2879790.711 24653359.602 -5671071.510 10 0 60951 42300.00000 0 2816334.394 23742757.935 -8742949.977 10 0 60951 43200.00000 0 2567716.655 22490233.204 -11643973.239 10 0 60951 44100.00000 0 2095792.933 20941666.374 -14317407.269 10 0 60951 45000.00000 0 1372454.526 19151875.456 -16710980.751 10 0 60951 45900.00000 0 381081.137 17182353.055 -18777927.106 10 0 60951 46800.00000 0 -882500.398 15098739.195 -20477913.650 10 0 60951 47700.00000 0 -2409593.483 12968137.922 -21777838.286 10 0 60951 48600.00000 0 -4178763.956 10856392.625 -22652477.476 10 0 60951 49500.00000 0 -6156521.687 8825436.295 -23084972.773 10 0 60951 50400.00000 0 -8298522.302 6930829.099 -23067146.985 10 0 60951 51300.00000 0 -10551237.482 5219586.847 -22599644.935 10 0 60951 52200.00000 0 -12854022.393 3728390.708 -21691897.622 10 0 60951 53100.00000 0 -15141492.199 2482251.601 -20361912.319 10 0 60951 54000.00000 0 -17346106.970 1493682.741 -18635894.683 10 0 60951 54900.00000 0 -19400856.064 762411.829 -16547712.188 10 0 60951 55800.00000 0 -21241929.506 275641.407 -14138211.240 10 0 60951 56700.00000 0 -22811265.121 8842.662 -11454402.886 10 0 60951 57600.00000 0 -24058866.068 -72954.188 -8548534.300 10 0 60951 58500.00000 0 -24944793.559 -13430.325 -5477065.139 10 0 60951 59400.00000 0 -25440753.673 137115.192 -2299569.220 10 0 60951 60300.00000 0 -25531214.359 324133.113 922416.987 10 0 60951 61200.00000 0 -25214008.443 491365.317 4126576.970 10 0 60951 62100.00000 0 -24500399.792 583452.761 7251005.706 10 0 60951 63000.00000 0 -23414611.771 548500.937 10235388.200 10 0 60951 63900.00000 0 -21992839.019 340496.058 13022143.686 10 0 60951 64800.00000 0 -20281784.382 -78528.208 15557515.201 10 0 60951 65700.00000 0 -18336781.758 -736663.130 17792585.485 10 0 60951 66600.00000 0 -16219582.089 -1650712.059 19684201.546 10 0 60951 67500.00000 0 -13995892.953 -2825251.102 21195792.035 10 0 60951 68400.00000 0 -11732771.894 -4252202.932 22298063.279 10 0 60951 69300.00000 0 -9495979.367 -5910942.741 22969561.771 10 0 60951 70200.00000 0 -7347398.798 -7768933.918 23197092.945 10 0 60951 71100.00000 0 -5342628.678 -9782869.743 22975988.177 10 0 60951 72000.00000 0 -3528845.034 -11900276.792 22310214.162 10 0 60951 72900.00000 0 -1943022.021 -14061516.821 21212321.220 10 0 60951 73800.00000 0 -610584.396 -16202107.203 19703229.562 10 0 60951 74700.00000 0 455451.573 -18255266.240 17811855.252 10 0 60951 75600.00000 0 1254811.809 -20154579.532 15574580.454 10 0 60951 76500.00000 0 1799757.283 -21836677.483 13034575.544 10 0 60951 77400.00000 0 2114342.955 -23243812.315 10240983.779 10 0 60951 78300.00000 0 2233172.308 -24326225.948 7247982.357 10 0 60951 79200.00000 0 2199698.662 -25044207.788 4113736.706 10 0 60951 80100.00000 0 2064144.260 -25369753.533 899267.785 10 0 60951 81000.00000 0 1881125.277 -25287752.451 -2332745.329 10 0 60951 81900.00000 0 1707084.265 -24796650.169 -5519203.260 10 0 60951 82800.00000 0 1597640.718 -23908556.486 -8597838.633 10 0 60951 83700.00000 0 1604974.619 -22648791.559 -11508456.231 10 0 60951 84600.00000 0 1775356.973 -21054888.406 -14194134.303 10 0 60951 85500.00000 0 2146935.205 -19175093.416 -16602360.942 10 0 60952 0.00000 0 2747870.268 -17066428.810 -18686080.846 10 0 60952 900.00000 0 3594907.335 -14792398.732 -20404631.099 10 0 60952 1800.00000 0 4692441.704 -12420440.119 -21724543.537 10 0 60952 2700.00000 0 6032121.610 -10019223.681 -22620201.016 10 0 60952 3600.00000 0 7593004.396 -7655922.855 -23074331.811 10 0 60952 4500.00000 0 9342259.399 -5393565.583 -23078334.193 10 0 60952 5400.00000 0 11236386.917 -3288580.685 -22632425.770 10 0 60952 6300.00000 0 13222900.719 -1388641.344 -21745616.192 10 0 60952 7200.00000 0 15242401.867 269105.174 -20435505.578 10 0 60952 8100.00000 0 17230955.407 1659349.605 -18727914.551 10 0 60952 9000.00000 0 19122669.135 2769422.545 -16656355.061 10 0 60952 9900.00000 0 20852365.678 3599555.960 -14261354.200 10 0 60952 10800.00000 0 22358235.889 4162597.238 -11589645.821 10 0 60952 11700.00000 0 23584362.999 4483191.566 -8693247.072 10 0 60952 12600.00000 0 24483013.011 4596470.550 -5628438.832 10 0 60952 13500.00000 0 25016597.181 4546305.207 -2454670.496 10 0 60952 14400.00000 0 25159226.522 4383199.073 766589.473 10 0 60952 15300.00000 0 24897795.543 4161911.535 3973035.139 10 0 60952 16200.00000 0 24232552.082 3938911.970 7102714.664 10 0 60952 17100.00000 0 23177131.329 3769771.597 10095209.921 10 0 60952 18000.00000 0 21758053.988 3706601.867 12892782.794 10 0 60952 18900.00000 0 20013710.274 3795645.797 15441467.808 10 0 60952 19800.00000 0 17992872.029 4075121.960 17692091.971 10 0 60952 20700.00000 0 15752794.111 4573410.281 19601204.130 10 0 60952 21600.00000 0 13356982.459 5307654.785 21131897.855 10 0 60952 22500.00000 0 10872719.426 6282841.504 22254513.633 10 0 60952 23400.00000 0 8368446.600 7491390.667 22947208.075 10 0 60952 24300.00000 0 5911111.052 8913281.569 23196379.843 10 0 60952 25200.00000 0 3563582.511 10516707.130 22996944.155 10 0 60952 26100.00000 0 1382246.532 12259233.713 22352449.896 10 0 60952 27000.00000 0 -585128.072 14089421.114 21275035.771 10 0 60952 27900.00000 0 -2301159.734 15948838.600 19785224.416 10 0 60952 28800.00000 0 -3740188.983 17774396.046 17911556.051 10 0 60952 29700.00000 0 -4889121.365 19500895.498 15690066.144 10 0 60952 30600.00000 0 -5747741.982 21063698.339 13163614.472 10 0 60952 31500.00000 0 -6328486.904 22401397.228 10381076.169 10 0 60952 32400.00000 0 -6655679.356 23458380.560 7396408.384 10 0 60952 33300.00000 0 -6764261.365 24187180.494 4267609.287 10 0 60952 34200.00000 0 -6698073.319 24550503.630 1055589.059 10 0 60952 35100.00000 0 -6507753.815 24522856.071 -2177024.969 10 0 60952 36000.00000 0 -6248349.176 24091691.320 -5367124.776 10 0 60952 36900.00000 0 -5976735.252 23258029.585 -8452373.879 10 0 60952 37800.00000 0 -5748962.927 22036519.781 -11372448.685 10 0 60952 38700.00000 0 -5617642.608 20454939.687 -14070242.283 10 0 60952 39600.00000 0 -5629481.605 18553154.258 -16493004.534 10 0 60952 40500.00000 0 -5823081.816 16381575.843 -18593393.862 10 0 60952 41400.00000 0 -6227093.723 13999191.755 -20330418.226 10 0 60952 42300.00000 0 -6858807.027 11471243.492 -21670245.393 10 0 60952 43200.00000 0 -7723238.936 8866656.783 -22586865.937 10 0 60952 44100.00000 0 -8812759.265 6255332.027 -23062595.889 10 0 60952 45000.00000 0 -10107267.981 3705410.238 -23088409.694 10 0 60952 45900.00000 0 -11574916.833 1280629.914 -22664098.100 10 0 60952 46800.00000 0 -13173343.328 -962114.368 -21798249.380 10 0 60952 47700.00000 0 -14851363.437 -2974910.217 -20508056.051 10 0 60952 48600.00000 0 -16551050.182 -4720574.770 -18818952.850 10 0 60952 49500.00000 0 -18210109.244 -6173940.565 -16764094.976 10 0 60952 50400.00000 0 -19764450.719 -7322629.312 -14383688.657 10 0 60952 51300.00000 0 -21150848.456 -8167284.895 -11724188.754 10 0 60952 52200.00000 0 -22309575.461 -8721259.715 -8837380.392 10 0 60952 53100.00000 0 -23186905.430 -9009771.334 -5779363.546 10 0 60952 54000.00000 0 -23737376.787 -9068568.233 -2609460.948 10 0 60952 54900.00000 0 -23925725.982 -8942163.548 610929.276 10 0 60952 55800.00000 0 -23728411.009 -8681713.031 3819514.194 10 0 60952 56700.00000 0 -23134663.377 -8342627.611 6954297.670 10 0 60952 57600.00000 0 -22147026.316 -7982021.207 9954761.051 10 0 60952 58500.00000 0 -20781358.217 -7656100.600 12763011.520 10 0 60952 59400.00000 0 -19066301.943 -7417605.927 15324877.724 10 0 60952 60300.00000 0 -17042242.327 -7313407.840 17590933.497 10 0 60952 61200.00000 0 -14759794.554 -7382360.611 19517431.911 10 0 60952 62100.00000 0 -12277884.926 -7653499.855 21067133.596 10 0 60952 63000.00000 0 -9661501.594 -8144659.528 22210015.039 10 0 60952 63900.00000 0 -6979206.052 -8861565.891 22923844.441 10 0 60952 64800.00000 0 -4300505.745 -9797447.021 23194614.797 10 0 60952 65700.00000 0 -1693193.863 -10933175.692 23016825.891 10 0 60952 66600.00000 0 779235.948 -12237941.960 22393609.155 10 0 60952 67500.00000 0 3059994.792 -13670430.262 21336691.694 10 0 60952 68400.00000 0 5101125.173 -15180455.063 19866198.245 10 0 60952 69300.00000 0 6865261.242 -16710989.923 18010292.535 10 0 60952 70200.00000 0 8326949.123 -18200507.968 15804662.343 10 0 60952 71100.00000 0 9473471.347 -19585538.033 13291855.516 10 0 60952 72000.00000 0 10305139.432 -20803330.601 10520477.374 10 0 60952 72900.00000 0 10835040.727 -21794521.911 7544262.990 10 0 60952 73800.00000 0 11088248.482 -22505683.441 4421040.938 10 0 60952 74700.00000 0 11100527.092 -22891647.616 1211608.029 10 0 60952 75600.00000 0 10916586.437 -22917509.158 -2021462.937 10 0 60952 76500.00000 0 10587959.103 -22560214.586 -5215058.215 10 0 60952 77400.00000 0 10170591.207 -21809669.507 -8306775.192 10 0 60952 78300.00000 0 9722250.523 -20669313.973 -11236164.897 10 0 60952 79200.00000 0 9299864.137 -19156139.070 -13945938.217 10 0 60952 80100.00000 0 8956901.213 -17300142.286 -16383109.633 10 0 60952 81000.00000 0 8740914.731 -15143243.757 -18500053.813 10 0 60952 81900.00000 0 8691349.066 -12737708.983 -20255452.392 10 0 60952 82800.00000 0 8837708.510 -10144145.154 -21615110.962 10 0 60952 83700.00000 0 9198165.853 -7429156.567 -22552629.516 10 0 60952 84600.00000 0 9778670.616 -4662759.031 -23049913.076 10 0 60952 85500.00000 0 10572594.609 -1915663.187 -23097513.046 10 0 60953 0.00000 0 11560928.839 743458.148 -22694793.691 10 0 60953 900.00000 0 12713022.669 3250605.179 -21849921.715 10 0 60953 1800.00000 0 13987830.858 5548875.361 -20579681.547 10 0 60953 2700.00000 0 15335615.781 7590581.237 -18909121.175 10 0 60953 3600.00000 0 16700029.995 9338971.771 -16871037.840 10 0 60953 4500.00000 0 18020490.439 10769489.447 -14505315.376 10 0 60953 5400.00000 0 19234743.196 11870513.708 -11858127.806 10 0 60953 6300.00000 0 20281510.534 12643563.372 -8981026.083 10 0 60953 7200.00000 0 21103109.010 13102953.395 -5929926.848 10 0 60953 8100.00000 0 21647929.490 13274924.015 -2764023.519 10 0 60953 9000.00000 0 21872676.157 13196282.014 455358.936 10 0 60953 9900.00000 0 21744272.227 12912613.635 3665943.480 10 0 60953 10800.00000 0 21241354.266 12476145.873 6805692.566 10 0 60953 11700.00000 0 20355294.253 11943346.772 9813989.818 10 0 60953 12600.00000 0 19090708.087 11372365.446 12632790.375 10 0 60953 13500.00000 0 17465430.230 10820418.488 15207719.484 10 0 60953 14400.00000 0 15509955.836 10341231.119 17489100.081 10 0 60953 15300.00000 0 13266373.116 9982638.754 19432891.524 10 0 60953 16200.00000 0 10786829.111 9784447.874 21001523.342 10 0 60953 17100.00000 0 8131590.608 9776644.435 22164609.602 10 0 60953 18000.00000 0 5366778.108 9978024.000 22899531.422 10 0 60953 18900.00000 0 2561863.874 10395300.789 23191877.125 10 0 60953 19800.00000 0 -212965.339 11022733.687 23035731.701 10 0 60953 20700.00000 0 -2889474.476 11842286.390 22433809.356 10 0 60953 21600.00000 0 -5403967.249 12824317.337 21397425.369 10 0 60953 22500.00000 0 -7699688.644 13928773.361 19946305.886 10 0 60953 23400.00000 0 -9728944.077 15106840.172 18108236.991 10 0 60953 24300.00000 0 -11454847.294 16302983.437 15918557.211 10 0 60953 25200.00000 0 -12852623.565 17457297.394 13419500.545 10 0 60953 26100.00000 0 -13910412.480 18508064.108 10659400.309 10 0 60953 27000.00000 0 -14629535.101 19394416.567 7691767.112 10 0 60953 27900.00000 0 -15024212.466 20058993.249 4574257.410 10 0 60953 28800.00000 0 -15120745.635 20450470.897 1367552.028 10 0 60953 29700.00000 0 -14956190.713 20525866.407 -1865833.427 10 0 60953 30600.00000 0 -14576584.255 20252507.668 -5062782.176 10 0 60953 31500.00000 0 -14034794.445 19609586.823 -8160828.165 10 0 60953 32400.00000 0 -13388090.129 18589226.999 -11099399.678 10 0 60953 33300.00000 0 -12695532.567 17197014.502 -13821027.919 10 0 60953 34200.00000 0 -12015302.854 15451971.634 -16272494.356 10 0 60953 35100.00000 0 -11402080.941 13385969.762 -18405892.045 10 0 60953 36000.00000 0 -10904589.931 11042606.638 -20179578.201 10 0 60953 36900.00000 0 -10563411.972 8475595.440 -21558997.868 10 0 60953 37800.00000 0 -10409169.878 5746734.013 -22517361.774 10 0 60953 38700.00000 0 -10461152.336 2923540.836 -23036164.950 10 0 60953 39600.00000 0 -10726440.915 76658.240 -23105536.419 10 0 60953 40500.00000 0 -11199575.005 -2722867.121 -22724414.146 10 0 60953 41400.00000 0 -11862767.418 -5406311.970 -21900543.320 10 0 60953 42300.00000 0 -12686659.592 -7909898.000 -20650299.747 10 0 60953 43200.00000 0 -13631582.299 -10177198.454 -18998343.764 10 0 60953 44100.00000 0 -14649266.484 -12161230.593 -16977113.395 10 0 60953 45000.00000 0 -15684930.027 -13826148.860 -14626168.506 10 0 60953 45900.00000 0 -16679650.904 -15148470.926 -11991400.461 10 0 60953 46800.00000 0 -17572925.701 -16117788.823 -9124124.048 10 0 60953 47700.00000 0 -18305305.337 -16736939.068 -6080070.466 10 0 60953 48600.00000 0 -18820997.284 -17021628.357 -2918301.626 10 0 60953 49500.00000 0 -19070325.671 -16999533.914 299932.911 10 0 60953 50400.00000 0 -19011947.152 -16708919.038 3512374.319 10 0 60953 51300.00000 0 -18614731.060 -16196824.070 6656946.024 10 0 60953 52200.00000 0 -17859226.628 -15516909.906 9672936.364 10 0 60953 53100.00000 0 -16738657.236 -14727044.943 12502150.923 10 0 60953 54000.00000 0 -15259401.220 -13886736.174 15090014.026 10 0 60953 54900.00000 0 -13440939.541 -13054511.043 17386600.127 10 0 60953 55800.00000 0 -11315272.325 -12285358.125 19347577.145 10 0 60953 56700.00000 0 -8925827.454 -11628332.021 20935045.574 10 0 60953 57600.00000 0 -6325904.749 -11124420.945 22118258.873 10 0 60953 58500.00000 0 -3576717.899 -10804764.871 22874212.557 10 0 60953 59400.00000 0 -745112.298 -10689297.914 23188091.439 10 0 60953 60300.00000 0 2098949.788 -10785871.715 23053566.525 10 0 60953 61200.00000 0 4885035.723 -11089897.272 22472935.270 10 0 60953 62100.00000 0 7544913.843 -11584521.802 21457101.276 10 0 60953 63000.00000 0 10015141.171 -12241335.466 20025391.926 10 0 60953 63900.00000 0 12239461.543 -13021581.058 18205215.168 10 0 60953 64800.00000 0 14170915.143 -13877818.709 16031559.435 10 0 60953 65700.00000 0 15773571.320 -14755978.296 13546343.680 10 0 60953 66600.00000 0 17023811.348 -15597715.330 10797627.619 10 0 60953 67500.00000 0 17911105.883 -16342972.352 7838695.401 10 0 60953 68400.00000 0 18438252.652 -16932638.140 4727028.989 10 0 60953 69300.00000 0 18621062.444 -17311191.661 1523190.511 10 0 60953 70200.00000 0 18487505.073 -17429217.275 -1710364.596 10 0 60953 71100.00000 0 18076350.297 -17245682.230 -4910519.654 10 0 60953 72000.00000 0 17435360.848 -16729876.927 -8014748.367 10 0 60953 72900.00000 0 16619114.551 -15862932.515 -10962359.446 10 0 60953 73800.00000 0 15686549.081 -14638848.365 -13695707.486 10 0 60953 74700.00000 0 14698335.326 -13064983.176 -16161343.844 10 0 60953 75600.00000 0 13714193.007 -11161986.860 -18311082.657 10 0 60953 76500.00000 0 12790264.721 -8963174.744 -20102959.123 10 0 60953 77400.00000 0 11976661.898 -6513370.029 -21502059.800 10 0 60953 78300.00000 0 11315288.295 -3867263.495 -22481207.823 10 0 60953 79200.00000 0 10838034.166 -1087360.222 -23021489.454 10 0 60953 80100.00000 0 10565417.698 1758399.277 -23112612.079 10 0 60953 81000.00000 0 10505730.476 4599242.593 -22753087.689 10 0 60953 81900.00000 0 10654721.635 7364283.654 -21950239.674 10 0 60953 82800.00000 0 10995831.999 9985241.381 -20720034.583 10 0 60953 83700.00000 0 11500965.824 12399045.269 -19086744.046 10 0 60953 84600.00000 0 12131764.990 14550219.932 -17082445.428 10 0 60953 85500.00000 0 12841329.318 16392950.625 -14746372.842 99